Погода в Борисовском

Россия / Тверская область     57°39′40″N   34°09′28″E
В апреле 2022 года жителям России запретили посещать сайт meteo.paraplan.net по решению Генеральной прокуратуры. Аудитория сайта уменьшилась в 10 раз. Владельцы сайта не видят смысла в поддержке погодного сервера в таких условиях. Сайт будет закрыт в октябре.
темп.,
°C
ветер,
м/с
пор.,
м/с
влажн.,
%
обл.,
%
осадки,
мм/ч
давл.,
гПа
погр.,
м
4 октября, вт
вт400:00+6юв51189100 0.3 9981087
03:00+6юв41191100 1.0 9991159
06:00+6юв51392100 2.1 9991098
09:00+6юв51292100 7.1 10011040
12:00+6юв4993100 2.8 1003883
15:00+7ююв5884100 3.3 10041075
18:00+5ююв4992100 0.3 10061088
21:00+5ююв3796100 1.1 10061013
5 октября, ср
ср500:00+5ююв2596100 0.5 1007868
03:00+5зюз0195100 1.5 1008435
06:00+5з1292100 0.4 100979
09:00+5зсз1394100 0.7 1010213
12:00+6з2591100 0.0 1012432
15:00+7з3687100 0.2 1014571
18:00+6з1290100 0.1 101449
21:00+5з249390 0.1 1015136
6 октября, чт
чт600:00+3зюз22965 0.0 101635
03:00+3юз22975 0.0 101622
06:00+3ю239797 0.0 101657
09:00+6ю2593100 0.0 1015181
12:00+8ю389698 0.0 1014332
15:00+12ююз498719 0.0 1012595
18:00+11ююз411905 0.0 1011389
21:00+11юз514914 0.0 1011601
7 октября, пт
пт700:00+12з51292100 1.8 10111066
03:00+9з6138893 1.9 1014870
06:00+9з61383100 0.1 10151357
09:00+10з61380100 0.1 10161234
12:00+11з6137719 0.0 10181334
15:00+13з612670 0.1 10181294
18:00+11з512761 0.0 1020865
21:00+9зюз413825 0.0 1021567
8 октября, сб
сб800:00+8юз311925 0.0 1021401
03:00+7юз4129612 0.0 1020390
06:00+7юз41394100 0.0 1020434
09:00+9юз4138450 0.0 1019564
12:00+13юз5126782 0.0 1017932
15:00+13ююз51267100 0.0 10151091
18:00+11ююз61371100 0.0 1013931
21:00+10ююз61480100 0.1 1012913